Location: Bakov nad Jizerou
(50.4784°N, 14.9394°E)
Time: 15:10:32
(UTC+00:00)

Terra - Pass Details

Date: 16 June 2021
Orbit: 701 x 703 km, 98.2° (Epoch: 03 August)

Event Time Altitude Azimuth Distance (km) Brightness Sun altitude
Exits shadow 21:05:50 13° 180° (S) 1,952 3.6 -11.9°
Maximum altitude 21:09:58 59° 259° (WSW) 816 2.2 -12.2°
Drops below altitude 10° 21:14:42 10° 339° (NNW) 2,184 5.9 -12.5°
Sets 21:17:00 0° 343° (NNW) 3,107 7.1 -12.6°
